Weather History for Preston, MN

Change the Weather History Date:

Wednesday, April 10, 2013

  Actual Average (KRST) Record (KRST)
Temperature  
Mean Temperature 36 °F 44 °F  
Max Temperature 38 °F 54 °F 85 °F (1977)
Min Temperature 33 °F 34 °F 13 °F (1973)
Degree Days  
Heating Degree Days 30 21  
Month to date heating degree days 230  
Since 1 July heating degree days 7102  
Cooling Degree Days 0 0  
Month to date cooling degree days 0  
Year to date cooling degree days 0  
Moisture  
Dew Point 29 °F    
Average Humidity 78    
Maximum Humidity 82    
Minimum Humidity 66    
Precipitation  
Precipitation 0.37 in 0.11 in 1.20 in (2008)
Month to date precipitation 0.92  
Year to date precipitation 4.49  
Snow  
Snow 0.00 in 0.10 in 1.70 in (2007)
Month to date snowfall 1.4  
Since 1 July snowfall 50.0  
Snow Depth -    
Sea Level Pressure  
Sea Level Pressure 29.94 in    
Wind  
Wind Speed 14 mph (ENE)    
Max Wind Speed 24 mph    
Max Gust Speed 36 mph    
Visibility 7 miles    
Events Rain , Snow , Thunderstorm    
T = Trace of Precipitation, MM = Missing Value Source: NWS Daily Summary

Daily Weather History Graph

Daily Weather History Graph

Search for Another Location

Airport:

Trip Planner

Search our weather history database for the weather conditions in past years. The results will help you decide how hot, cold, wet, or windy it might be!

Date:

Astronomy

Apr. 10, 2013 Rise Set
Actual Time 6:33 AM CDT 7:46 PM CDT
Civil Twilight 6:04 AM CDT 8:16 PM CDT
Nautical Twilight 5:29 AM CDT 8:51 PM CDT
Astronomical Twilight 4:51 AM CDT 9:29 PM CDT
Moon 6:29 AM CDT (4/10) 8:24 PM CDT (4/10)
Length of Visible Light 14h 11m
Length of Day
13h 12m
New Moon, 0% of the Moon is Illuminated
Apr 10
New Moon
Apr 18
First Quarter
Apr 25
Full
May 2
Last Quarter
May 9
New

Hourly Weather History & Observations

Time (CDT) Temp. Windchill Dew Point Humidity Pressure Visibility Wind Dir Wind Speed Gust Speed Precip Events Conditions
12:12 AM 38.3 °F 30.1 °F 32.0 °F 78% 29.99 in 10.0 mi NE 13.8 mph - N/A Rain , Thunderstorm Light Thunderstorms and Rain
12:32 AM 37.9 °F 30.0 °F 32.0 °F 79% 29.99 in 3.0 mi NE 12.7 mph 19.6 mph 0.04 in Rain , Thunderstorm Thunderstorms and Rain
12:51 AM 37.6 °F 29.1 °F 32.0 °F 80% 29.99 in 5.0 mi NNE 13.8 mph 17.3 mph 0.06 in Rain , Thunderstorm Light Thunderstorms and Rain
1:12 AM 37.0 °F 31.0 °F 31.6 °F 81% 30.05 in 7.0 mi North 8.1 mph 21.9 mph 0.01 in Rain , Thunderstorm Thunderstorms and Rain
1:32 AM 36.7 °F 28.0 °F 31.5 °F 81% 30.04 in 2.0 mi NNE 13.8 mph 18.4 mph 0.08 in Thunderstorm Overcast
1:52 AM 36.5 °F 28.7 °F 31.1 °F 81% 30.08 in 2.5 mi North 11.5 mph 19.6 mph 0.17 in   Overcast
2:12 AM 35.6 °F 26.2 °F 30.2 °F 81% 30.05 in 4.0 mi NNE 15.0 mph 18.4 mph 0.02 in Snow Snow
2:52 AM 34.7 °F 22.8 °F 29.3 °F 81% 29.89 in 10.0 mi NE 23.0 mph 29.9 mph 0.03 in Thunderstorm Overcast
3:32 AM 34.2 °F 23.0 °F 27.9 °F 78% 29.94 in 10.0 mi ENE 19.6 mph 29.9 mph N/A   Overcast
6:45 AM 33.8 °F 23.5 °F 26.6 °F 75% 29.86 in 10.0 mi ENE 16.1 mph 26.5 mph N/A   Overcast
7:01 AM 33.3 °F 23.2 °F 27.1 °F 78% 29.88 in 10.0 mi NE 15.0 mph 24.2 mph N/A   Overcast
7:12 AM 33.3 °F 23.2 °F 27.1 °F 78% 29.91 in 10.0 mi NE 15.0 mph 21.9 mph N/A   Overcast
7:33 AM 33.4 °F 22.7 °F 27.0 °F 77% 29.95 in 10.0 mi NE 17.3 mph - N/A   Overcast
7:52 AM 33.4 °F 23.1 °F 27.0 °F 77% 29.95 in 10.0 mi NE 16.1 mph 23.0 mph N/A   Overcast
8:13 AM 33.4 °F 24.8 °F 27.1 °F 78% 29.99 in 10.0 mi NE 11.5 mph 19.6 mph N/A   Overcast
8:32 AM 33.6 °F 25.6 °F 27.1 °F 77% 30.00 in 10.0 mi NE 10.4 mph 17.3 mph N/A   Overcast
8:53 AM 33.8 °F 24.3 °F 27.1 °F 77% 29.99 in 10.0 mi ENE 13.8 mph 21.9 mph N/A   Overcast
9:13 AM 33.8 °F 24.8 °F 27.1 °F 77% 29.99 in 10.0 mi ENE 12.7 mph 18.4 mph N/A   Overcast
9:33 AM 33.8 °F 27.0 °F 27.1 °F 77% 30.00 in 10.0 mi ENE 8.1 mph - N/A   Overcast
9:53 AM 34.0 °F 26.6 °F 27.3 °F 77% 30.00 in 10.0 mi NE 9.2 mph - N/A   Overcast
10:33 AM 33.8 °F 24.3 °F 27.5 °F 78% 30.01 in 10.0 mi NE 13.8 mph - N/A   Overcast
10:53 AM 33.8 °F 23.9 °F 27.5 °F 78% 30.01 in 10.0 mi NE 15.0 mph 20.7 mph N/A   Overcast
11:13 AM 33.8 °F 26.4 °F 27.9 °F 79% 30.01 in 10.0 mi NE 9.2 mph 18.4 mph N/A   Overcast
11:33 AM 33.8 °F 23.9 °F 27.9 °F 79% 29.98 in 7.0 mi NE 15.0 mph 24.2 mph N/A   Overcast
11:52 AM 33.8 °F 23.9 °F 28.0 °F 79% 29.97 in 7.0 mi NE 15.0 mph 23.0 mph N/A   Overcast
12:12 PM 33.8 °F 24.8 °F 27.9 °F 79% 29.97 in 10.0 mi NE 12.7 mph 21.9 mph N/A   Overcast
12:33 PM 33.8 °F 25.3 °F 27.9 °F 79% 29.99 in 10.0 mi ENE 11.5 mph 19.6 mph N/A   Overcast
12:53 PM 34.2 °F 27.5 °F 28.2 °F 79% 29.99 in 7.0 mi NE 8.1 mph 18.4 mph N/A   Overcast
1:12 PM 34.2 °F 25.7 °F 28.4 °F 79% 29.98 in 3.0 mi ENE 11.5 mph 19.6 mph N/A   Overcast
1:33 PM 34.3 °F 26.5 °F 28.4 °F 79% 29.99 in 3.0 mi East 10.4 mph - N/A   Overcast
1:53 PM 34.7 °F 28.1 °F 28.9 °F 79% 29.99 in 3.0 mi ENE 8.1 mph - 0.01 in   Overcast
2:12 PM 34.7 °F 26.4 °F 28.9 °F 79% 29.99 in 4.0 mi East 11.5 mph 16.1 mph 0.01 in   Overcast
2:33 PM 34.9 °F 25.7 °F 29.1 °F 79% 29.97 in 7.0 mi East 13.8 mph 19.6 mph 0.01 in   Overcast
2:53 PM 34.9 °F 27.1 °F 28.9 °F 79% 29.98 in 10.0 mi East 10.4 mph - 0.01 in   Overcast
3:13 PM 35.1 °F 27.4 °F 29.1 °F 79% 29.98 in 10.0 mi East 10.4 mph 16.1 mph N/A   Overcast
3:33 PM 35.1 °F 29.3 °F 29.3 °F 80% 29.96 in 1.5 mi NE 6.9 mph - 0.02 in   Overcast
3:53 PM 35.2 °F 29.5 °F 29.8 °F 81% 29.96 in 2.0 mi NE 6.9 mph - 0.03 in   Overcast
4:13 PM 35.6 °F 28.6 °F 30.2 °F 81% 29.95 in 1.8 mi NE 9.2 mph - 0.01 in   Overcast
4:32 PM 35.6 °F 28.6 °F 30.2 °F 81% 29.94 in 2.0 mi NNE 9.2 mph - 0.01 in   Overcast
4:53 PM 35.8 °F 26.9 °F 30.7 °F 82% 29.94 in 1.5 mi NE 13.8 mph - 0.01 in Rain Light Rain
5:12 PM 36.0 °F 27.5 °F 30.9 °F 82% 29.93 in 1.5 mi NE 12.7 mph 18.4 mph 0.01 in   Light Drizzle
5:33 PM 35.8 °F 26.5 °F 30.7 °F 82% 29.94 in 1.5 mi NNE 15.0 mph 20.7 mph 0.01 in Rain Light Rain
5:52 PM 35.8 °F 26.9 °F 30.7 °F 82% 29.93 in 3.0 mi NE 13.8 mph 23.0 mph 0.01 in Rain Light Rain
6:13 PM 36.0 °F 28.5 °F 30.9 °F 82% 29.94 in 3.0 mi ENE 10.4 mph 18.4 mph N/A   Haze
6:32 PM 36.1 °F 27.3 °F 30.7 °F 81% 29.94 in 1.5 mi ENE 13.8 mph 19.6 mph N/A   Light Drizzle
6:53 PM 36.5 °F 28.2 °F 30.9 °F 80% 29.93 in 1.8 mi ENE 12.7 mph 19.6 mph 0.01 in   Light Drizzle
7:12 PM 36.3 °F 26.8 °F 31.1 °F 81% 29.92 in 1.8 mi ENE 16.1 mph 21.9 mph 0.01 in Rain Light Rain
7:33 PM 36.1 °F 26.2 °F 30.9 °F 81% 29.91 in 2.5 mi ENE 17.3 mph 23.0 mph 0.02 in   Light Drizzle
7:53 PM 36.0 °F 26.0 °F 30.9 °F 82% 29.89 in 3.0 mi ENE 17.3 mph 25.3 mph 0.02 in Rain Light Rain
8:12 PM 36.0 °F 24.7 °F 30.7 °F 81% 29.88 in 5.0 mi ENE 21.9 mph 28.8 mph N/A   Haze
8:32 PM 35.8 °F 23.9 °F 30.2 °F 80% 29.86 in 10.0 mi ENE 24.2 mph 35.7 mph 0.01 in   Overcast
8:52 PM 35.8 °F 24.2 °F 29.7 °F 78% 29.87 in 10.0 mi ENE 23.0 mph 31.1 mph 0.01 in   Overcast
9:13 PM 35.8 °F 24.5 °F 28.9 °F 76% 29.88 in 10.0 mi East 21.9 mph 35.7 mph N/A   Overcast
9:32 PM 35.8 °F 24.2 °F 28.4 °F 75% 29.88 in 10.0 mi East 23.0 mph 34.5 mph N/A   Overcast
9:53 PM 36.0 °F 25.0 °F 28.2 °F 73% 29.89 in 10.0 mi East 20.7 mph 31.1 mph N/A   Overcast
10:12 PM 36.0 °F 24.4 °F 28.0 °F 73% 29.86 in 10.0 mi East 23.0 mph 32.2 mph N/A   Overcast
10:33 PM 36.0 °F 26.0 °F 27.5 °F 71% 29.85 in 10.0 mi East 17.3 mph 23.0 mph N/A   Overcast
10:53 PM 36.0 °F 24.7 °F 27.0 °F 70% 29.82 in 10.0 mi East 21.9 mph 29.9 mph N/A   Overcast
11:13 PM 36.0 °F 27.5 °F 26.6 °F 69% 29.82 in 10.0 mi East 12.7 mph 29.9 mph N/A   Overcast
11:32 PM 36.5 °F 26.3 °F 26.4 °F 67% 29.79 in 10.0 mi East 18.4 mph 27.6 mph N/A   Overcast
11:52 PM 36.5 °F 27.8 °F 26.2 °F 66% 29.81 in 10.0 mi East 13.8 mph 24.2 mph N/A   Overcast